Simultaneous Nadir Overpasses (SNOs) Predictions

Prediction of SNOs near equator between NOAA-19 and NPP Satellite Orbit:

Table of predicted SNOs near equator for the next 14.0 days since TLE Epoch: 1/18/2013
Index Date (NOAA-19) Time (NOAA-19) NOAA-19 Lat,Lon Date (NPP) Time (NPP) NPP Lat,Lon Distance(km) Time Diff (sec)
1 01/29/2013 16:23:20 -30.00, 132.87 01/29/2013 16:15:40 -29.77, 131.88 98.48 460
2 01/29/2013 17:14:31 29.99, -59.92 01/29/2013 17:06:30 29.82, -60.84 89.90 481
3 01/29/2013 18:05:24 -29.95, 107.36 01/29/2013 17:57:11 -29.80, 106.50 85.17 493
4 01/29/2013 18:56:36 30.00, -85.45 01/29/2013 18:48:01 29.85, -86.22 76.49 515
5 01/29/2013 19:47:29 -29.96, 81.84 01/29/2013 19:38:42 -29.83, 81.11 71.74 527
6 01/29/2013 20:38:40 29.95,-110.95 01/29/2013 20:29:31 29.82,-111.59 63.16 549
7 01/29/2013 21:29:3
